User: anonymous   Login
Location: Unspecified
(0.0000°N, 0.0000°E)
Time: 22:31:48
(UTC+02:00)
Language:

ATLAS V CENTAUR R/B - Orbit

View from above orbital plane
View from above orbital plane
View from above satellite
View from above satellite

Ground track
Ground track

The orbit data is extracted from the following two-line orbital elements,

1 27500U 02038B   17119.51769364 +.00004092 +00000-0 +76395-3 0  9995
2 27500 018.0913 084.5989 6761357 266.2595 020.5787 02.96532012124502
Epoch (UTC): 29 April 2017 12:25:28
Eccentricity: 0.6761357
inclination: 18.0913°
perigee height: 250 km
apogee height: 27924 km
right ascension of ascending node: 84.5989°
argument of perigee: 266.2595°
revolutions per day: 2.96532012
mean anomaly at epoch: 20.5787°
orbit number at epoch: 12450

The dashed part of the orbit path shows where the satellite is in the earth's shadow,  

DLR